CWEU

Eureka Airport

Eureka, Canada
Issued Wind Visibility Ceiling Temperature Dew Point Humidity Barometer
Aug-20
09:00 UTC
110°
2 KTS
15 miles Overcast
23,000' AGL
C
36° F
-1° C
30° F
81% 29.89" Hg
1012.4 hPa
VFR
Aug-20
08:00 UTC
080°
2 KTS
15 miles Overcast
23,000' AGL
C
36° F
-1° C
30° F
81% 29.89" Hg
1012.4 hPa
VFR
Aug-20
07:00 UTC
060°
3 KTS
15 miles Overcast
23,000' AGL
C
37° F
-1° C
30° F
75% 29.89" Hg
1012.3 hPa
VFR
Aug-20
06:00 UTC
15 miles Broken
23,000' AGL
C
37° F
-1° C
30° F
75% 29.89" Hg
1012.3 hPa
VFR
Aug-20
03:00 UTC
15 miles Broken
23,000' AGL
C
43° F
C
32° F
66% 29.89" Hg
1012.5 hPa
VFR
Aug-20
02:00 UTC
170°
4 KTS
15 miles Broken
23,000' AGL
C
43° F
C
32° F
66% 29.89" Hg
1012.5 hPa
VFR
Aug-20
01:00 UTC
150°
4 KTS
15 miles Broken
23,000' AGL
C
45° F
C
32° F
61% 29.9" Hg
1012.8 hPa
VFR
Aug-20
00:00 UTC
160°
5 KTS
15 miles Broken
23,000' AGL
C
46° F
C
32° F
57% 29.91" Hg
1013 hPa
VFR
Aug-19
23:00 UTC
150°
7 KTS
15 miles Broken
23,000' AGL
C
46° F
-1° C
30° F
53% 29.91" Hg
1013 hPa
VFR
Aug-19
22:00 UTC
150°
6 KTS
15 miles Broken
23,000' AGL
C
46° F
C
32° F
57% 29.91" Hg
1013 hPa
VFR
Aug-19
21:00 UTC
140°
7 KTS
15 miles Broken
27,000' AGL
C
46° F
C
32° F
57% 29.9" Hg
1012.9 hPa
VFR
Aug-19
20:00 UTC
160°
10 KTS
15 miles Overcast
27,000' AGL
C
45° F
-1° C
30° F
57% 29.91" Hg
1013 hPa
VFR
Aug-19
19:00 UTC
150°
8 KTS
15 miles Overcast
27,000' AGL
C
45° F
-1° C
30° F
57% 29.91" Hg
1013 hPa
VFR
Aug-19
18:00 UTC
170°
8 KTS
15 miles Overcast
27,000' AGL
C
45° F
C
32° F
61% 29.91" Hg
1013.1 hPa
VFR
Aug-19
17:00 UTC
160°
7 KTS
15 miles Overcast
27,000' AGL
C
45° F
C
32° F
61% 29.91" Hg
1013.2 hPa
VFR
Aug-19
16:00 UTC
140°
8 KTS
15 miles Broken
24,000' AGL
C
43° F
C
32° F
66% 29.92" Hg
1013.4 hPa
VFR
Aug-19
15:00 UTC
160°
5 KTS
15 miles Broken
24,000' AGL
C
43° F
C
32° F
66% 29.92" Hg
1013.5 hPa
VFR
Aug-19
14:00 UTC
170°
7 KTS
15 miles Broken
24,000' AGL
C
39° F
C
32° F
75% 29.93" Hg
1013.6 hPa
VFR
Aug-19
13:00 UTC
130°
4 KTS
15 miles Broken
24,000' AGL
C
39° F
C
32° F
75% 29.93" Hg
1013.8 hPa
VFR
Aug-19
12:00 UTC
140°
5 KTS
15 miles Broken
22,000' AGL
C
37° F
C
32° F
81% 29.93" Hg
1013.7 hPa
VFR
Aug-19
11:00 UTC
130°
6 KTS
15 miles Broken
22,000' AGL
C
36° F
-1° C
30° F
81% 29.92" Hg
1013.4 hPa
VFR